This demonstration page uses our WeatherBlox Daily Observations layout. Learn more.

Left ArrowRight Arrow

39.51506, -84.39828

Hourly Observations for June 17, 2016

Temp ( °F °C ) Dew Point ( °F °C ) Humidity (%) Winds ( mph kmh ) Pressure ( in mb ) Visibility ( mi km ) Precip ( " mm )
12:15 am 00:15 Cloudy 69 20.8 58 14.2 66 66 NNW 6 9 29.85 1011 10 16 N/A
12:35 am 00:35 Cloudy 69 20.8 57 14.1 66 66 NNW 6 9 29.85 1011 10 16 N/A
12:55 am 00:55 Cloudy 69 20.8 58 14.5 67 67 NW 9 15 29.85 1011 10 16 N/A
1:15 am 01:15 Cloudy 69 20.8 58 14.6 68 68 NNW 10 17 29.85 1011 10 16 N/A
1:35 am 01:35 Cloudy 69 20.8 59 14.9 69 69 NNW 10 17 29.85 1011 10 16 N/A
1:55 am 01:55 Cloudy 69 20.8 60 15.4 71 71 NW 9 15 29.85 1011 10 16 N/A
2:15 am 02:15 Cloudy 69 20.8 60 15.6 72 72 NW 9 15 29.85 1011 10 16 N/A
2:35 am 02:35 Cloudy 69 20.8 60 15.7 73 73 NW 6 9 29.85 1011 10 16 N/A
2:55 am 02:55 Cloudy 69 20.8 60 15.6 72 72 NW 6 9 29.85 1011 10 16 N/A
3:15 am 03:15 Cloudy with Drizzle 69 20.8 62 16.6 77 77 NNW 5 7 29.85 1011 7 11 N/A
3:35 am 03:35 Cloudy 69 20.8 62 16.9 78 78 NNW 6 9 29.85 1011 10 16 N/A
3:55 am 03:55 Cloudy 69 20.8 62 16.5 77 77 NW 3 6 29.85 1011 10 16 N/A
4:15 am 04:15 Cloudy 69 20.8 62 16.5 77 77 NNW 3 6 29.85 1011 10 16 N/A
4:35 am 04:35 Cloudy 69 20.8 61 16.3 76 76 NNW 5 7 29.85 1011 10 16 N/A
4:55 am 04:55 Mostly Cloudy 69 20.8 61 16.2 75 75 N 5 7 29.85 1011 10 16 N/A
5:15 am 05:15 Partly Cloudy 69 20.8 61 16.3 76 76 N 3 6 29.85 1011 10 16 N/A
5:35 am 05:35 Clear 67 19.5 59 15.1 76 76 N 3 6 29.85 1011 10 16 N/A
5:55 am 05:55 Clear 67 19.5 60 15.5 78 78 NW 5 7 29.85 1011 10 16 N/A
6:15 am 06:15 Partly Cloudy 67 19.5 60 15.3 77 77 NNW 5 7 29.85 1011 10 16 N/A
6:35 am 06:35 Partly Cloudy 67 19.5 59 15.2 76 76 NNW 5 7 29.88 1012 10 16 N/A
6:55 am 06:55 Sunny 67 19.5 59 15.1 76 76 NNW 3 6 29.88 1012 10 16 N/A
7:15 am 07:15 Sunny 69 20.8 61 16 74 74 NNW 3 6 29.88 1012 10 16 N/A
7:35 am 07:35 Sunny 69 20.8 60 15.5 72 72 N 7 11 29.88 1012 10 16 N/A
7:55 am 07:55 Partly Cloudy 69 20.8 59 14.9 69 69 N N/A 29.88 1012 10 16 N/A
8:15 am 08:15 Sunny 71 21.5 59 15 67 67 N 3 6 29.88 1012 10 16 N/A
8:35 am 08:35 Sunny 72 22.3 59 15.2 64 64 N 7 11 29.91 1013 10 16 N/A
8:55 am 08:55 Partly Cloudy 74 23.6 61 16.1 63 63 N 3 6 29.91 1013 10 16 N/A
9:15 am 09:15 Partly Cloudy 74 23.6 61 16.2 63 63 N 7 11 29.91 1013 10 16 N/A
9:35 am 09:35 Partly Cloudy 74 23.6 60 15.8 62 62 N 8 13 29.94 1014 10 16 N/A
9:55 am 09:55 Sunny 74 23.6 60 15.6 61 61 NE 9 15 29.94 1014 10 16 N/A
10:15 am 10:15 Sunny 75 24.1 60 15.8 60 60 NNE 8 13 29.94 1014 10 16 N/A
10:35 am 10:35 Mostly Cloudy N/A N/A N/A N 8 13 N/A 10 16 N/A
10:55 am 10:55 Mostly Cloudy 75 24 60 15.7 60 60 N 7 11 29.94 1014 10 16 N/A
11:15 am 11:15 Mostly Cloudy 76 24.4 62 16.4 61 61 NNE 8 13 29.94 1014 10 16 N/A
11:35 am 11:35 Cloudy 77 25 62 16.8 60 60 NE 9 15 29.94 1014 10 16 N/A
11:55 am 11:55 Cloudy 76 24.2 61 15.9 60 60 NNE 8 13 29.97 1015 10 16 N/A
12:15 pm 12:15 Partly Cloudy 77 25.1 60 15.7 56 56 NNE 9 15 29.97 1015 10 16 N/A
12:35 pm 12:35 Partly Cloudy 80 26.5 61 15.9 52 52 NNE 8 13 29.97 1015 10 16 N/A
12:55 pm 12:55 Partly Cloudy 80 26.6 59 15 49 49 ENE 10 17 29.97 1015 10 16 N/A
1:15 pm 13:15 Partly Cloudy 80 26.5 58 14.6 48 48 NNE 6 9 29.97 1015 10 16 N/A
1:35 pm 13:35 Partly Cloudy 81 27.2 59 14.9 47 47 NE 10 17 29.97 1015 10 16 N/A
1:55 pm 13:55 Partly Cloudy 82 28 59 14.9 45 45 NE 9 15 29.94 1014 10 16 N/A
2:15 pm 14:15 Partly Cloudy 82 28 57 13.9 42 42 NNE 14 22 29.94 1014 10 16 N/A
2:35 pm 14:35 Partly Cloudy 83 28.6 58 14.5 42 42 NNE 9 15 29.94 1014 10 16 N/A
2:55 pm 14:55 Mostly Cloudy 83 28.6 56 13.6 40 40 N 9 15 29.91 1013 10 16 N/A
3:15 pm 15:15 Mostly Cloudy 84 28.8 56 13.2 38 38 NNE 8 13 29.91 1013 10 16 N/A
3:35 pm 15:35 Partly Cloudy 84 28.8 55 12.8 37 37 NNE 9 15 29.91 1013 10 16 N/A
3:55 pm 15:55 Partly Cloudy 89 31.8 58 14.6 35 35 NNE 8 13 29.91 1013 10 16 N/A
4:15 pm 16:15 Partly Cloudy 84 28.9 54 12.4 36 36 NNE 7 11 29.91 1013 10 16 N/A
4:35 pm 16:35 Partly Cloudy 83 28.5 54 12.1 36 36 ENE 9 15 29.91 1013 10 16 N/A
4:55 pm 16:55 Partly Cloudy 89 31.6 57 13.8 34 34 N 6 9 29.91 1013 10 16 N/A
5:15 pm 17:15 Mostly Cloudy 90 32.1 56 13.4 32 32 NNE 6 9 29.91 1013 10 16 N/A
5:35 pm 17:35 Partly Cloudy 86 29.9 55 12.6 35 35 NNE 5 7 29.91 1013 10 16 N/A
5:55 pm 17:55 Partly Cloudy 90 32.1 57 13.7 33 33 NNE 7 11 29.91 1013 10 16 N/A
6:15 pm 18:15 Partly Cloudy 87 30.7 54 12.2 32 32 NE 7 11 29.91 1013 10 16 N/A
6:35 pm 18:35 Partly Cloudy 84 29.1 53 11.6 34 34 NNE 9 15 29.91 1013 10 16 N/A
6:55 pm 18:55 Partly Cloudy 83 28.2 54 12.2 37 37 N 6 9 29.94 1014 10 16 N/A
7:15 pm 19:15 Mostly Cloudy 86 30.1 52 11.3 31 31 NE 10 17 29.94 1014 10 16 N/A
7:35 pm 19:35 Mostly Cloudy 84 28.7 51 10.8 33 33 NNE 8 13 29.94 1014 10 16 N/A
7:55 pm 19:55 Mostly Cloudy 83 28.4 51 10.5 33 33 NE 9 15 29.94 1014 10 16 N/A
8:15 pm 20:15 Partly Cloudy 82 27.9 54 12.3 38 38 NNE 6 9 29.94 1014 10 16 N/A
8:35 pm 20:35 Partly Cloudy 80 26.9 53 11.8 39 39 NNE 6 9 29.97 1015 10 16 N/A
8:55 pm 20:55 Sunny 80 26.5 54 12.1 41 41 NE 6 9 29.97 1015 10 16 N/A
9:15 pm 21:15 Partly Cloudy 77 25.1 55 12.7 46 46 N 3 6 30.00 1016 10 16 N/A
9:35 pm 21:35 Mostly Cloudy 74 23.6 56 13.1 52 52 N N/A 30.00 1016 10 16 N/A
9:55 pm 21:55 Mostly Cloudy 74 23.6 57 14.1 55 55 NNW 5 7 30.00 1016 10 16 N/A
10:15 pm 22:15 Mostly Cloudy 74 23.6 57 14 55 55 N 5 7 30.03 1017 10 16 N/A
10:35 pm 22:35 Partly Cloudy 76 24.5 47 8.6 36 36 N 9 15 30.03 1017 10 16 N/A
10:55 pm 22:55 Clear 77 25 45 7.1 32 32 NNE 7 11 30.06 1018 10 16 N/A
11:15 pm 23:15 Clear 74 23.6 43 6.1 32 32 NNE 7 11 30.06 1018 10 16 N/A
11:35 pm 23:35 Clear 74 23.6 48 8.7 39 39 NNE 6 9 30.06 1018 10 16 N/A
11:55 pm 23:55 Clear 70 21.3 47 8.6 44 44 NE 5 7 30.06 1018 10 16 N/A

Powered by AerisWeather